Powrót do katalogu

KUIPER-00140

AktywnyŁącznośćLEO
NORAD 65965·PAYLOAD·🇺🇸 United States

Wystrzelony Oct 14, 2025 z Cape Canaveral Space Force Station

Loading…

Następne Przeloty (najbliższe 24 godziny)

TLE

ŚwieżeSource: CelesTrak SupGP

Epoka: Sep 14, 2026, 19:48 UTC

1 65965C 25228U   26257.82546296  .00003297  00000+0  43161-3 0  2579
2 65965  51.8978 229.2981 0000962  62.7993 279.2916 14.79921795    18

Śledź KUIPER-00140 w czasie rzeczywistym z AllMySat

Download on the App Store